Simultaneous Nadir Overpasses (SNOs) Predictions

Prediction of SNOs between METOP-A and TERRA Satellite Orbit:

Table of predicted SNOs for the next 14.0 days since TLE Epoch: 3/2/2013
Index Date (METOP-A) Time (METOP-A) Lat,Lon (METOP-A) SZA (METOP-A ) Date (TERRA) Time (TERRA) Lat,Lon (TERRA) SZA (TERRA ) Distance(km) Time Diff (sec)
1 03/03/2013 15:07:32 -81.36,-178.64 89.54 03/03/2013 15:07:37 -81.35,-178.70 89.55 1.31 5
2 03/03/2013 15:58:11 81.37, -10.72 90.52 03/03/2013 15:57:03 81.36, -10.91 90.46 3.27 68
3 03/06/2013 10:41:50 -81.36,-112.08 90.59 03/06/2013 10:41:56 -81.36,-112.08 90.59 0.06 6
4 03/06/2013 11:32:29 81.37, 55.81 89.47 03/06/2013 11:31:22 81.37, 55.68 89.42 2.17 67
5 03/09/2013 06:16:10 -81.36, -45.93 91.69 03/09/2013 06:16:18 -81.36, -45.77 91.67 2.76 8
6 03/0
